Location: Unspecified
(0.0000°N, 0.0000°E)
Time: 17:17:37
(UTC+00:00)

Tiangong - Pass Details

Date: 17 May 2026
Orbit: 380 x 392 km, 41.5° (Epoch: 11 June)

Event Time Altitude Azimuth Distance (km) Brightness Sun altitude
Rises 05:07:48 0° 348° (NNW) 2,237 1.8 -11.5°
Reaches altitude 10° 05:11:27 10° 32° (NNE) 1,385 1.5 -10.6°
Maximum altitude 05:12:02 10° 43° (NE) 1,363 1.7 -10.5°
Drops below altitude 10° 05:12:37 10° 53° (NE) 1,385 2.0 -10.3°
Sets 05:16:15 0° 98° (E) 2,237 3.0 -9.5°
